Theta_e
308 307 307 306 308 308 310 314 313 308 309 309 307 308 306 308 309 305 306 305 306 305 304 305 304 304 305 307 307 309 307 312 320 313 312 310 304 303 303 303 305 304 303 301 299 299 298 305 311 313 314 313 313 312 312 311 306 305 306 306 307 308 309 310 310 310 310 309 309 310 309 309 309 310 310 310 310 310 310 310 310 310 309 309 309 309 309 309 309 309 309 309 309 309 309 309 309
306 306 306 307 309 308 311 314 316 311 312 310 306 308 305 306 308 306 308 306 306 305 304 305 303 304 305 306 305 307 308 308 313 311 308 306 303 304 303 304 304 304 303 301 299 300 299 300 305 311 314 313 313 312 311 310 306 304 304 303 304 305 306 309 309 307 307 307 308 309 309 309 309 309 310 310 310 310 310 310 309 309 309 309 309 309 309 309 309 309 309 309 309 309 309 309 309
306 307 307 308 309 309 316 318 315 313 313 311 306 307 305 307 307 306 307 306 305 304 304 304 303 304 303 305 304 305 309 306 306 306 305 304 303 303 303 304 304 304 302 300 299 300 301 299 299 307 313 313 313 312 310 309 306 303 301 301 302 304 303 306 306 303 303 304 306 308 308 308 307 308 309 309 310 310 310 309 309 309 309 309 309 309 309 309 309 309 309 309 308 308 308 308 308
306 308 307 308 312 316 328 324 316 316 310 309 308 306 307 309 308 306 305 305 305 303 304 304 304 304 302 305 304 303 307 306 304 305 306 304 303 303 303 303 302 302 299 299 299 300 301 301 299 301 310 314 312 312 310 308 305 302 299 300 301 301 300 302 301 300 300 301 303 304 305 305 304 306 308 309 309 309 310 310 309 309 309 309 309 309 309 309 309 309 309 308 308 307 306 305 305
308 309 307 308 312 317 322 316 315 318 310 309 309 306 308 308 307 305 304 304 304 304 304 304 305 303 301 304 304 305 308 305 303 304 305 305 303 303 303 302 300 299 299 300 300 301 301 302 300 298 305 311 312 311 309 306 304 301 299 299 299 298 298 299 299 298 298 299 300 300 300 301 301 302 304 306 307 307 308 309 309 309 309 309 309 309 308 307 307 308 307 307 307 306 305 303 302
309 309 308 309 308 310 316 312 310 311 306 309 310 306 307 305 305 305 303 304 303 304 304 304 305 303 303 304 303 306 307 304 304 303 303 304 303 302 302 301 300 298 299 300 300 301 301 302 301 299 301 308 312 310 307 306 302 299 299 298 298 298 298 297 297 297 297 298 298 297 297 297 296 297 298 300 303 303 304 306 309 308 306 307 306 306 305 303 302 304 305 304 304 304 303 301 300
308 309 313 316 310 309 314 311 307 308 304 306 310 307 305 304 304 304 304 303 302 303 303 303 304 303 305 304 304 304 304 304 304 304 303 302 302 302 301 300 299 299 298 299 300 300 301 302 303 302 301 307 312 309 306 304 301 299 298 298 298 298 298 297 297 297 297 297 296 296 296 295 295 294 294 294 297 299 299 301 305 305 303 303 303 303 302 299 297 299 302 300 300 302 300 298 298
309 309 314 318 312 311 313 309 306 308 305 303 306 306 304 303 303 304 304 303 302 303 303 303 302 304 306 303 305 306 303 304 304 304 303 302 302 302 301 300 299 299 298 299 300 300 302 302 303 303 300 305 309 308 306 303 299 298 298 298 298 298 298 298 298 297 297 297 296 296 296 296 295 295 294 294 294 294 295 295 299 301 300 300 299 298 298 297 295 297 300 298 299 301 298 296 296
308 308 313 316 311 311 311 308 306 305 305 304 304 306 305 303 302 304 305 303 303 304 304 304 303 304 305 302 305 306 303 304 304 304 304 303 303 303 302 300 298 298 299 299 301 301 302 303 303 303 300 301 305 306 304 301 298 298 298 298 298 298 298 298 298 298 298 297 297 297 297 296 296 296 295 295 294 294 294 293 294 297 297 296 295 295 294 295 295 298 300 300 300 301 299 297 297
310 310 312 315 312 310 309 308 307 304 304 304 304 306 304 301 302 303 305 304 303 305 304 303 302 303 304 303 306 305 304 304 303 304 303 303 303 303 303 301 299 298 299 300 301 302 302 302 302 303 301 300 301 303 301 299 299 298 298 298 298 298 298 298 298 298 298 298 298 298 298 297 297 297 296 296 296 295 295 294 294 294 295 295 295 295 294 295 295 297 299 299 300 300 299 298 298
315 316 313 319 320 314 310 308 306 304 304 303 303 304 303 303 303 304 304 304 303 305 304 301 302 304 303 304 306 304 304 304 303 304 303 303 303 302 303 302 299 298 299 301 302 302 302 302 302 303 302 300 299 300 299 298 298 298 298 298 298 298 298 298 298 298 298 298 298 298 298 298 298 297 297 297 297 297 296 296 295 295 295 295 295 295 295 296 296 296 297 298 298 298 298 298 298
315 319 319 321 320 314 310 308 306 305 303 303 303 303 304 304 304 304 304 303 303 304 304 302 303 304 303 304 306 303 303 304 304 304 303 303 303 302 301 300 299 299 300 302 302 302 302 302 302 302 302 301 299 298 298 298 298 298 298 298 298 298 298 298 298 298 298 298 298 298 298 298 298 298 298 298 298 297 297 297 296 296 296 296 296 296 296 296 297 297 297 298 298 298 298 298 298
316 322 323 313 309 309 308 307 307 306 304 304 304 304 304 303 304 306 305 304 303 304 305 302 302 303 303 305 304 302 303 304 304 304 304 303 302 302 301 300 299 299 300 302 303 302 302 302 302 302 302 302 300 299 298 298 298 298 298 298 298 297 298 298 298 298 297 298 298 298 298 298 298 298 298 298 298 298 298 297 297 297 297 297 297 297 297 297 298 298 298 298 298 298 298 298 298
315 324 323 309 305 308 308 307 306 306 306 306 304 304 304 304 306 306 305 305 304 305 305 301 301 303 304 304 306 306 305 303 304 304 304 303 303 302 301 300 299 299 301 302 303 303 303 302 302 302 302 302 301 300 298 298 298 298 298 298 298 297 298 298 298 298 298 297 298 298 298 298 298 298 298 299 299 299 299 298 298 298 298 298 298 298 298 298 298 298 298 298 298 298 298 298 298
312 323 325 313 307 308 308 307 307 307 308 306 304 304 304 304 305 305 304 304 306 304 302 301 301 304 304 304 309 309 305 304 304 304 304 303 303 303 301 301 300 300 301 303 303 303 303 303 303 302 302 302 302 301 300 298 298 298 298 298 298 298 298 298 298 298 298 298 297 298 298 298 298 298 298 299 299 299 299 299 299 299 299 299 298 299 298 298 298 298 298 298 298 298 298 298 297
316 326 328 318 308 307 306 305 307 308 308 305 303 304 304 304 303 304 303 303 306 303 302 304 302 303 305 306 308 306 304 305 304 303 304 303 303 303 302 301 301 301 301 303 303 303 303 303 303 303 303 303 303 302 301 300 298 298 298 298 298 298 298 298 298 298 298 298 298 297 298 298 298 298 298 298 299 299 299 299 299 299 299 299 299 299 298 298 298 298 298 298 298 298 297 297 297
322 328 325 319 310 310 307 304 307 308 310 305 301 304 304 304 303 302 301 301 305 304 304 305 302 302 304 305 305 304 304 304 303 303 303 303 303 303 303 302 302 302 302 302 303 303 303 303 303 303 303 303 303 302 301 301 300 299 298 298 298 298 298 298 298 298 298 298 298 298 298 298 298 298 298 298 298 298 298 298 298 299 299 299 299 299 298 298 298 298 298 298 298 298 297 297 297
330 330 317 313 312 312 309 306 306 308 310 306 301 304 303 304 304 302 302 302 303 304 304 303 302 302 302 302 303 304 304 303 303 303 302 302 302 302 303 303 303 302 302 302 303 303 303 303 303 303 303 303 303 302 302 301 301 300 299 298 298 298 298 298 298 298 298 298 298 298 298 298 298 298 298 298 298 298 298 298 298 298 298 298 298 298 298 298 298 298 298 297 297 297 297 297 297
327 331 319 314 315 310 306 307 306 306 309 306 302 302 303 304 304 302 303 304 303 303 304 303 303 303 302 301 302 303 303 303 303 302 302 302 301 301 302 302 303 302 302 302 302 303 303 303 303 303 303 303 303 302 302 302 302 301 300 298 298 298 298 299 298 298 298 298 299 299 299 299 299 299 298 298 298 297 297 298 298 298 298 298 298 298 298 298 298 298 298 297 297 297 297 297 297
315 325 325 317 315 308 303 306 305 306 307 305 302 301 302 303 304 302 302 304 303 303 303 303 304 304 303 301 300 302 302 302 302 302 301 301 301 301 301 302 302 302 301 301 301 302 303 303 303 303 303 303 303 302 302 302 302 302 300 299 298 298 299 299 299 298 298 299 299 299 299 299 299 299 299 299 298 298 298 298 298 298 298 298 298 298 298 298 298 298 298 297 297 297 297 297 297
309 315 320 313 309 307 304 305 305 304 304 304 303 302 302 302 303 302 303 304 304 303 302 303 305 304 303 301 300 300 301 301 301 301 301 301 301 301 302 302 302 302 301 301 301 301 302 303 303 303 303 303 302 302 302 302 302 302 301 300 299 299 299 299 299 298 298 299 299 299 299 299 299 299 299 299 299 299 298 298 298 298 298 298 298 298 298 298 298 298 298 298 297 297 297 297 297
307 306 307 306 305 305 305 304 305 302 301 303 303 302 303 303 302 302 303 304 305 305 303 302 303 303 303 301 299 300 299 300 300 300 301 301 301 301 302 302 302 301 301 302 302 301 301 301 301 301 302 302 302 301 301 301 302 302 301 300 299 299 299 299 299 299 298 299 299 299 299 299 299 299 299 299 299 299 299 299 299 299 299 298 298 298 298 298 298 298 298 297 297 297 297 297 297
309 305 303 305 304 305 305 304 305 303 302 303 303 303 303 303 304 303 303 303 305 306 305 302 301 300 300 300 299 300 299 298 299 300 301 301 301 301 302 302 302 302 302 302 301 301 301 301 301 301 301 301 301 301 301 301 301 301 301 300 300 299 299 300 299 299 299 299 299 299 299 299 299 299 299 299 299 299 299 299 299 299 299 299 298 298 298 298 298 298 297 297 297 297 297 297 296
311 307 304 304 303 305 304 303 305 304 304 304 303 303 303 305 305 303 303 303 303 303 301 299 298 298 298 299 299 299 299 299 299 301 301 302 302 302 302 302 302 302 301 301 301 301 300 301 303 303 303 302 302 303 302 301 301 301 301 301 300 299 300 300 300 299 299 299 299 300 300 300 300 300 299 300 300 299 299 299 299 299 299 299 299 299 298 298 298 297 297 297 297 297 297 297 296
310 307 304 304 304 304 303 304 306 305 304 302 302 303 305 306 303 302 304 303 303 301 300 299 299 299 299 300 300 299 299 299 300 300 301 302 302 302 302 302 302 302 302 301 301 301 300 302 304 304 304 303 303 303 303 302 302 302 301 301 301 300 300 300 300 300 300 300 300 300 300 300 300 300 300 300 300 299 299 299 299 299 299 299 299 299 298 298 298 298 297 297 297 297 297 296 296
306 305 304 304 304 303 303 304 305 304 304 302 302 305 305 304 302 303 305 303 302 302 301 301 301 302 302 301 299 297 298 299 299 300 301 301 301 301 302 302 302 302 302 302 301 301 301 302 304 304 305 304 304 304 304 303 302 302 301 301 301 300 300 300 300 300 300 300 300 300 300 300 300 300 300 300 300 300 299 299 299 299 299 299 299 299 299 298 298 298 297 297 297 297 297 296 297
304 305 305 304 304 303 303 304 304 304 303 303 303 305 305 302 302 303 305 304 303 303 303 301 301 303 302 301 299 297 297 299 300 300 300 300 300 300 301 301 302 302 302 302 301 301 301 303 304 305 305 305 304 304 304 303 302 302 302 301 301 300 300 300 300 300 300 300 300 300 300 300 300 300 300 300 300 300 300 300 299 299 299 299 299 299 299 298 298 298 297 297 297 297 297 296 296
303 304 304 304 304 303 303 303 304 303 303 303 303 303 303 301 303 305 304 305 304 303 305 303 301 302 301 301 300 297 296 298 300 300 300 300 300 300 300 301 302 302 302 302 302 302 302 303 304 304 305 304 304 304 304 303 302 302 302 301 301 300 300 300 300 300 300 300 300 300 300 300 300 300 300 300 300 300 300 300 299 299 299 299 299 299 298 298 298 298 297 297 297 297 297 297 296
303 304 305 307 309 307 303 304 303 302 304 304 302 304 307 303 304 307 304 304 305 303 305 305 301 301 300 301 301 299 297 298 299 299 300 301 301 301 301 302 303 302 303 303 302 302 302 303 304 304 305 304 304 304 303 303 302 302 302 301 301 300 300 300 300 300 300 300 300 300 300 300 300 300 300 300 300 300 300 300 300 300 299 299 299 299 299 298 298 298 297 297 297 297 297 297 297
304 304 305 310 316 313 303 302 304 302 305 305 304 307 311 308 306 308 304 301 304 304 306 306 303 301 300 300 301 301 298 297 298 299 301 301 302 302 302 303 303 303 304 303 303 303 303 303 304 305 304 305 304 304 303 303 302 302 302 302 301 301 300 300 300 300 300 300 300 300 300 300 300 300 300 300 300 301 301 300 300 300 299 299 299 299 298 298 298 298 297 297 297 297 297 297 297
306 305 310 314 313 315 309 304 304 304 305 305 304 307 310 309 309 309 305 302 304 307 309 307 305 303 301 300 300 301 299 298 298 300 301 302 302 302 302 303 303 303 304 304 304 303 304 304 304 305 304 304 304 304 303 303 302 302 302 302 301 301 301 300 300 300 300 300 301 300 300 300 300 300 300 300 301 301 301 301 300 300 300 299 299 299 298 298 298 298 298 297 297 297 297 297 297
314 308 317 321 311 317 317 306 305 304 304 304 304 308 311 308 309 308 305 305 305 306 307 307 307 305 302 301 300 301 300 298 299 300 301 301 302 303 303 303 303 303 304 304 304 304 304 304 304 305 305 305 304 304 304 303 303 302 302 302 302 301 301 300 300 300 300 300 300 300 300 300 300 300 300 301 301 301 301 301 300 300 300 299 299 299 298 298 298 298 298 297 297 297 297 297 297
328 313 315 320 311 315 315 305 305 306 304 304 304 308 310 309 310 308 304 305 305 305 305 304 305 305 303 302 300 301 300 300 299 299 301 301 302 302 302 303 303 303 304 304 304 304 304 304 304 305 305 304 304 304 304 303 303 302 302 302 302 302 301 301 300 300 301 301 301 301 300 301 300 301 301 301 301 301 301 301 301 300 300 299 299 299 298 298 298 298 298 297 297 297 297 298 297
328 319 318 317 311 311 311 308 306 305 304 305 305 306 308 308 307 305 304 304 305 306 306 305 304 304 303 302 301 301 301 302 301 299 301 303 303 303 303 303 303 303 303 303 304 304 304 304 304 304 304 305 304 304 303 303 303 302 302 302 302 302 301 301 300 300 301 301 301 301 301 301 301 301 301 301 301 301 301 301 301 301 300 300 299 299 298 298 298 298 298 297 297 297 297 297 297
316 318 317 313 313 312 311 311 306 304 305 306 307 307 308 307 304 305 305 304 306 306 306 305 304 303 303 302 302 302 301 302 301 300 301 302 303 304 303 303 303 302 303 303 303 304 304 304 304 304 304 304 304 304 303 303 303 303 302 302 302 302 302 301 301 301 301 301 301 301 301 301 301 301 301 301 301 301 301 301 301 301 300 300 299 299 298 298 298 298 298 297 297 297 297 297 297
314 315 313 310 314 315 313 310 305 304 306 308 310 309 308 307 307 310 308 304 306 307 307 308 307 305 303 303 302 302 302 302 300 300 301 302 303 303 304 304 303 302 302 303 303 303 304 304 304 304 304 304 304 303 303 303 303 303 302 302 302 302 302 301 301 301 301 301 301 301 301 301 301 301 301 301 301 301 301 301 301 301 300 300 299 299 298 298 298 298 298 297 297 297 297 297 297
310 312 313 313 315 317 315 309 305 305 306 311 312 309 308 308 310 311 307 307 312 314 314 315 313 310 306 304 304 303 303 302 300 300 302 302 303 303 304 303 303 302 302 303 303 303 304 304 304 304 304 304 304 303 303 303 303 303 303 302 302 302 301 301 301 301 301 301 301 301 301 301 301 302 302 302 301 301 301 301 301 301 300 300 299 299 299 298 298 298 297 297 297 297 297 297 297
309 312 314 316 316 317 313 306 307 306 305 313 313 309 312 313 312 310 309 314 319 316 314 315 314 313 311 308 307 306 305 304 304 303 303 303 303 303 303 303 302 303 303 303 303 304 304 304 304 304 304 304 304 304 303 303 303 303 303 302 302 302 301 301 301 301 301 301 301 302 301 302 302 302 302 302 301 301 301 301 301 301 301 300 299 299 298 298 298 298 297 297 297 297 297 297 296
312 314 314 313 312 313 309 305 309 307 306 317 315 310 317 317 313 314 314 317 318 314 312 312 311 313 315 312 311 311 310 312 312 309 305 303 304 303 303 303 303 303 304 303 303 304 304 304 304 304 304 304 304 304 304 303 303 303 302 302 302 302 302 301 301 302 302 302 302 302 302 302 302 302 302 301 301 301 301 301 301 301 300 300 299 299 298 298 298 298 297 297 297 297 297 297 296
315 318 314 312 311 309 306 306 311 309 306 313 312 312 321 320 316 317 314 312 315 317 317 316 312 314 316 315 314 314 317 317 317 316 309 304 304 304 303 303 303 303 303 304 304 304 304 304 304 304 304 304 304 304 304 303 303 303 302 302 302 302 302 302 302 302 302 302 302 302 302 302 302 302 302 301 301 301 301 301 301 300 300 299 299 299 298 298 298 298 297 297 297 296 297 297 296
317 319 313 312 311 307 307 310 310 311 308 308 311 314 321 322 320 319 316 314 313 314 319 319 316 315 315 316 315 314 317 318 318 322 316 306 303 304 303 303 303 303 303 304 304 304 304 304 304 304 304 304 304 304 303 303 303 303 303 302 302 302 302 302 303 303 302 302 302 302 302 302 302 302 302 302 302 302 301 301 301 300 300 299 299 299 298 298 298 298 297 297 297 297 297 296 296
314 315 310 308 310 308 312 314 312 312 312 309 309 312 319 327 327 320 317 318 312 311 317 319 317 318 316 316 315 314 316 318 319 318 312 306 304 304 303 303 303 303 304 304 304 304 304 304 304 304 304 304 304 304 303 303 303 303 303 302 303 303 303 303 303 303 303 303 303 303 303 303 303 303 303 303 302 302 302 301 301 300 300 299 299 299 298 298 298 298 297 297 297 297 297 296 296
306 308 308 309 310 309 313 316 311 310 311 308 309 311 315 323 325 319 318 319 315 312 315 317 316 318 317 316 315 315 316 318 322 319 311 306 306 305 304 304 304 304 305 305 304 304 304 304 304 304 304 304 304 303 303 303 303 303 303 303 303 303 302 303 303 303 303 303 303 303 303 303 303 303 303 303 303 302 302 301 301 300 299 299 299 298 298 298 298 297 297 297 297 297 297 296 296
303 307 308 310 309 308 312 313 311 312 312 315 320 315 309 317 321 318 314 314 315 313 312 315 316 316 317 317 316 316 316 317 321 325 319 308 305 306 306 306 306 305 305 305 304 304 304 304 304 304 304 303 303 303 303 303 303 303 303 303 303 303 302 303 303 303 302 302 302 303 303 303 303 303 303 303 302 302 302 301 301 300 299 299 299 298 298 298 297 297 297 297 297 297 297 296 296
306 306 306 306 307 309 313 315 316 316 311 318 329 315 308 322 327 319 313 311 313 312 311 313 314 315 317 318 318 318 318 317 319 321 317 307 305 307 308 307 307 307 306 305 304 304 304 304 304 303 303 303 303 303 303 303 303 302 303 303 303 302 302 303 303 302 302 302 302 302 302 303 302 303 302 302 302 302 301 301 300 300 299 298 298 298 298 298 297 297 297 297 297 297 297 296 295
306 305 306 309 310 310 313 315 318 320 315 316 324 312 307 319 326 321 314 312 312 310 310 313 313 315 316 318 319 319 319 319 322 317 307 305 307 308 308 308 308 307 307 306 306 306 305 304 304 303 303 303 302 302 302 302 302 302 302 302 302 302 302 302 302 302 302 302 302 302 302 302 302 301 301 301 301 301 301 301 300 300 299 298 298 298 298 298 297 297 298 297 297 297 297 296 296
305 307 311 314 315 312 313 316 317 318 321 323 322 313 306 310 321 321 312 310 312 311 311 312 312 313 314 317 319 319 319 319 323 318 306 304 309 309 308 309 308 308 308 307 307 307 307 306 305 304 303 303 302 302 302 301 302 302 302 302 302 302 302 302 302 302 302 302 302 302 302 302 301 301 301 302 302 301 301 301 301 300 300 299 298 298 298 298 297 297 297 297 297 297 297 297 296
307 313 316 312 315 314 314 325 322 313 320 325 322 315 306 308 319 319 314 312 312 313 313 313 313 312 312 316 318 318 320 320 322 324 314 306 306 307 308 308 308 308 308 308 308 307 307 307 306 306 305 305 304 303 303 303 302 302 302 302 302 302 302 301 301 301 302 302 301 302 302 301 301 302 302 303 302 302 302 302 302 301 300 299 299 298 298 297 297 297 297 297 297 297 297 296 296
310 316 323 316 318 317 316 329 320 309 317 316 314 312 305 309 316 313 316 314 310 312 313 314 315 314 314 314 315 317 321 321 320 323 322 311 302 304 306 306 306 306 307 308 308 307 307 307 307 307 307 307 306 305 305 304 304 304 303 303 302 302 302 302 302 302 302 302 301 301 301 301 302 302 303 303 303 303 303 303 302 302 301 300 299 298 298 298 297 297 297 297 297 297 296 296 296
309 313 319 317 317 311 313 322 312 307 316 311 307 309 309 314 313 312 318 313 311 313 312 316 320 320 318 314 316 323 323 321 320 322 325 315 304 303 305 305 305 305 305 306 307 308 308 307 307 307 307 307 307 306 306 305 305 305 304 304 304 303 303 303 302 302 302 302 301 301 301 301 302 302 303 303 303 303 303 303 302 302 301 300 299 299 298 298 297 297 297 297 297 297 296 296 295
309 312 312 313 315 308 310 319 314 311 317 314 306 308 319 318 307 311 317 311 312 313 312 316 319 322 322 319 322 325 322 320 322 325 321 309 303 304 305 305 305 305 304 304 305 306 307 307 307 307 307 307 307 306 306 306 305 305 305 304 304 304 304 303 303 303 303 302 302 301 301 301 301 302 302 303 303 303 303 303 302 301 301 300 299 299 298 298 297 297 297 297 297 297 296 295 295
309 310 308 309 314 316 314 312 315 313 312 317 312 311 321 315 304 310 312 310 312 311 313 314 316 321 322 324 326 323 323 323 322 325 321 308 303 305 305 305 305 305 305 304 304 304 305 305 305 306 306 306 306 306 306 306 306 306 305 304 304 304 303 303 303 303 303 303 302 302 302 302 302 302 302 302 302 302 302 302 302 301 301 300 300 299 298 298 298 297 297 296 296 296 295 295 295
305 309 312 309 307 317 317 306 309 310 309 317 314 311 316 309 308 314 310 311 312 310 312 314 318 324 322 324 327 322 323 324 321 323 318 307 304 305 305 305 305 305 305 304 304 304 304 304 304 304 305 304 305 305 305 305 305 305 305 305 304 304 304 304 303 303 303 303 303 302 302 302 302 303 303 303 303 302 302 302 301 301 300 300 300 299 299 298 298 297 296 296 296 295 295 294 294
304 306 311 307 304 313 315 308 314 312 311 320 316 311 313 309 312 316 311 312 312 310 314 315 318 321 321 324 324 320 321 323 323 322 313 304 303 305 305 305 306 305 305 305 304 304 303 303 303 303 303 304 303 304 304 304 304 304 305 305 305 305 304 304 304 303 303 303 303 302 302 302 302 302 302 303 303 302 302 302 302 301 301 300 300 299 299 298 297 297 296 296 296 295 294 294 294
302 304 304 304 309 317 313 311 317 312 308 318 321 316 311 308 314 316 311 313 313 312 314 315 316 317 321 324 320 319 324 326 325 324 319 308 303 305 306 306 306 305 305 305 304 304 303 303 303 302 302 302 302 303 303 303 303 303 303 303 303 304 304 304 304 303 303 303 303 302 302 302 302 302 302 302 302 302 302 302 302 301 301 300 300 299 299 298 297 296 296 295 295 294 294 294 293
300 303 304 305 313 320 315 310 315 315 309 312 323 324 315 313 322 321 313 313 315 315 315 317 320 320 322 323 319 320 325 327 324 325 325 312 303 306 307 305 306 305 304 305 304 303 303 302 302 302 302 301 301 301 301 302 302 302 302 302 302 303 303 303 303 303 303 303 302 302 302 302 302 302 302 302 302 302 302 302 302 301 301 300 300 299 298 297 297 296 295 295 294 294 293 293 293
304 307 309 307 307 309 309 308 312 319 317 314 316 320 319 317 318 320 315 312 315 319 319 322 323 322 324 324 322 322 325 327 324 326 324 308 302 307 307 305 306 304 303 304 303 303 301 301 301 300 300 300 300 300 300 301 301 301 301 301 301 301 302 302 302 302 302 302 302 302 302 301 301 301 301 301 301 301 301 302 301 301 300 300 299 298 298 297 296 296 295 294 294 293 293 292 292
306 310 314 311 309 311 310 310 311 311 313 316 313 311 318 318 310 314 314 311 317 322 321 321 319 319 327 328 323 322 325 325 324 327 320 305 302 306 306 305 305 303 303 302 302 302 300 300 299 299 299 299 299 300 300 300 300 300 301 300 301 301 301 301 301 302 302 301 302 301 301 301 300 300 300 300 300 301 301 301 300 300 300 299 298 298 297 296 295 295 294 294 293 292 292 292 291
Wind_Speed
7 8 10 10 10 9 5 4 3 2 4 3 1 1 1 2 3 3 3 2 1 1 2 2 1 2 2 2 5 5 4 5 5 4 4 4 4 14 14 13 13 11 10 9 10 11 12 14 12 8 7 7 6 6 5 4 3 2 3 2 2 1 1 2 2 2 3 3 3 4 4 4 5 5 6 7 8 8 9 9 10 10 11 11 12 12 12 13 13 13 14 14 14 14 15 15 16
9 10 10 9 8 5 1 3 4 2 5 3 1 2 2 2 3 5 5 4 3 3 2 2 1 2 3 2 2 1 3 5 5 4 2 3 7 12 14 14 14 12 12 11 11 11 11 11 12 10 7 7 7 6 5 4 2 2 2 2 2 1 1 1 1 2 2 2 3 3 4 4 4 5 5 6 7 8 8 8 9 10 10 10 11 11 12 12 12 13 13 13 14 14 15 15 15
10 11 12 7 5 4 1 4 4 2 4 3 1 2 2 4 4 5 6 5 5 2 1 2 1 1 3 2 1 1 4 5 3 2 1 7 9 12 18 15 14 13 13 13 12 11 10 9 9 10 8 7 7 6 5 4 2 1 1 2 2 2 1 1 2 2 3 3 3 3 4 4 4 5 5 5 6 7 8 8 8 9 9 10 10 11 11 11 12 13 13 14 14 14 15 15 15
10 11 13 7 4 3 3 4 2 4 3 3 1 3 2 5 5 4 4 5 4 1 2 1 1 1 3 2 3 1 5 4 4 6 2 11 14 12 20 16 15 15 14 14 13 11 9 8 7 9 9 8 7 6 5 4 2 1 1 2 2 2 2 1 2 3 3 4 4 4 4 4 4 4 5 5 6 6 8 8 8 8 9 9 10 10 11 11 12 13 13 14 14 15 15 15 15
10 10 9 4 3 2 3 3 2 4 3 4 2 3 3 6 6 5 3 4 2 2 2 2 0 2 1 3 2 1 5 2 4 11 4 10 15 12 19 18 16 17 15 15 13 11 9 9 7 7 9 8 7 6 5 4 2 1 1 2 2 2 3 3 3 4 4 4 4 4 5 5 5 4 4 5 5 6 7 8 9 8 9 9 10 10 11 12 12 13 14 14 14 15 15 15 15
9 7 7 6 3 2 4 3 3 3 2 5 3 3 5 6 7 6 3 3 2 1 3 3 1 1 2 3 3 4 6 1 2 12 8 8 14 13 18 18 17 17 16 16 14 13 10 10 8 7 8 8 8 7 5 4 2 1 1 1 2 3 3 4 4 4 5 5 5 5 5 5 5 5 5 4 5 5 6 7 8 8 9 9 10 10 11 11 12 13 13 14 14 14 15 14 14
10 5 5 6 4 3 5 4 3 1 0 4 5 4 5 6 6 7 4 2 1 3 1 2 2 1 3 2 2 6 8 6 2 7 7 8 14 14 17 18 18 18 16 17 16 14 11 10 9 8 8 8 8 7 6 4 2 1 0 1 2 3 3 4 4 4 5 5 6 6 5 6 5 5 5 5 5 5 6 6 7 8 9 9 10 10 10 11 11 12 12 13 13 14 14 13 14
8 2 2 4 4 4 5 3 2 1 1 1 3 5 7 7 6 7 6 3 2 2 1 2 1 2 5 2 1 5 9 12 6 5 8 10 15 15 16 18 18 18 17 17 16 14 12 11 11 9 8 8 8 7 6 5 3 2 1 1 2 3 3 3 4 4 5 5 6 6 6 6 6 6 6 6 5 5 6 6 7 8 8 9 9 9 9 10 10 11 12 12 12 13 13 13 13
5 2 2 5 4 4 4 3 2 1 2 2 1 3 6 7 6 7 5 3 2 3 4 4 4 3 4 2 4 4 7 15 10 8 10 11 15 16 16 18 18 18 17 16 15 14 13 13 13 11 10 9 9 8 7 6 4 3 2 0 1 2 2 3 3 4 4 5 5 6 6 6 6 6 6 6 6 6 6 6 6 6 7 8 8 9 9 9 9 10 11 11 11 12 12 12 12
4 2 2 4 4 4 4 1 1 1 1 1 2 5 6 7 6 5 5 3 4 4 5 3 3 4 3 2 5 4 6 14 14 12 13 13 14 17 17 18 18 17 17 17 15 14 13 14 14 12 11 10 10 10 9 7 5 4 3 1 0 1 1 2 3 3 4 4 5 5 6 6 6 6 6 6 6 6 6 6 6 6 6 7 8 8 8 9 9 9 10 10 10 11 11 11 12
3 3 3 4 4 3 2 2 1 1 2 1 2 5 7 7 6 3 4 3 3 3 2 4 2 4 1 4 5 3 6 13 18 17 15 15 14 17 18 18 18 17 18 17 15 15 14 15 14 14 13 12 12 11 10 8 7 6 4 3 1 1 1 1 2 2 3 3 4 5 5 6 6 6 6 6 6 6 6 6 6 6 6 6 7 7 8 9 9 9 10 10 10 10 10 10 11
2 3 4 4 3 3 3 4 3 2 3 1 3 5 5 6 5 4 5 4 4 2 4 5 3 4 2 4 4 3 7 16 20 18 17 17 16 17 17 18 19 18 18 16 16 16 16 16 16 15 14 13 12 12 11 9 8 7 6 4 3 2 2 2 2 2 3 3 3 4 4 5 6 6 6 6 7 7 7 7 7 7 7 7 7 7 7 8 8 9 9 9 10 9 9 9 9
3 2 5 3 2 3 4 4 2 1 3 4 5 4 4 5 4 6 6 4 5 4 6 8 4 3 3 5 4 2 8 19 19 19 18 18 17 17 18 19 19 19 18 17 17 18 18 18 17 17 15 14 13 13 12 11 10 9 7 6 5 4 3 3 3 3 3 3 3 3 4 4 4 5 5 6 6 7 7 7 7 7 7 7 7 7 7 7 8 8 8 8 8 8 8 8 8
2 3 5 3 2 3 5 3 1 3 3 5 4 4 5 3 5 6 6 3 7 6 5 9 7 2 4 3 4 4 10 19 19 20 20 18 18 18 19 20 20 20 18 18 19 19 20 20 19 18 17 16 14 14 13 13 12 10 9 8 6 5 5 4 4 4 4 4 3 3 3 3 3 3 4 5 5 6 6 6 7 7 7 7 7 7 7 7 7 7 8 8 8 8 8 8 8
3 2 5 4 2 2 3 2 3 4 4 5 5 6 5 3 4 4 5 5 8 6 1 4 8 2 4 5 4 6 9 17 20 20 20 19 20 19 20 20 21 21 20 20 21 21 22 22 21 20 19 18 16 15 15 14 13 12 11 10 8 7 6 5 5 5 5 5 4 3 3 3 3 3 2 3 4 4 5 5 5 5 6 6 6 6 6 6 7 7 7 7 7 7 8 8 8
2 4 5 3 2 2 3 2 4 3 5 5 5 7 6 5 2 2 4 5 4 4 1 4 7 3 4 7 6 4 4 12 20 20 21 21 21 21 21 21 22 22 22 22 23 23 22 23 23 22 21 19 18 17 16 16 15 14 13 12 11 9 8 7 7 6 6 6 5 4 3 3 3 3 2 2 2 3 3 4 4 4 4 5 5 5 5 6 6 6 7 7 7 7 8 8 8
2 4 5 3 3 3 4 4 4 4 4 4 4 7 8 5 2 1 1 3 2 4 3 5 6 5 5 6 6 5 3 11 21 21 21 22 22 22 22 23 24 25 25 25 25 25 24 24 24 23 22 21 20 18 18 17 16 16 15 14 12 11 10 9 9 8 8 7 7 6 5 4 3 3 3 2 2 2 2 3 3 4 4 4 4 5 5 6 6 6 6 7 7 8 8 8 7
4 4 4 3 3 3 5 6 6 4 3 5 6 7 9 5 3 1 2 2 4 5 6 6 7 10 12 11 8 7 6 14 23 24 23 23 23 23 25 27 27 28 28 28 27 26 26 26 25 25 24 23 22 21 20 19 18 18 17 16 14 13 12 11 10 10 10 9 8 7 6 6 5 5 4 3 3 2 3 3 4 4 4 5 5 5 5 6 6 6 6 7 7 8 8 7 7
4 4 4 3 5 3 3 5 5 3 3 6 7 6 7 7 5 3 3 6 4 6 8 5 8 13 16 15 10 9 11 18 25 26 25 25 25 25 26 28 30 31 31 31 30 29 28 28 27 27 26 25 24 23 22 21 19 19 19 18 15 14 13 13 12 12 11 10 9 9 8 7 6 6 5 5 4 4 4 4 4 5 5 5 5 5 6 6 6 7 7 7 8 8 8 8 8
3 4 3 4 6 3 3 3 4 5 4 8 6 5 5 5 5 3 4 6 4 9 10 7 11 15 14 12 11 12 15 22 26 27 27 27 29 29 29 29 31 34 34 33 32 31 30 29 29 29 28 27 26 25 23 22 21 20 20 19 17 16 15 14 14 13 13 11 11 10 9 8 8 7 7 6 5 5 6 6 5 5 5 5 6 6 6 7 7 8 8 8 8 8 8 9 9
2 4 3 5 3 2 2 2 3 4 5 9 6 5 4 5 4 3 5 3 7 10 12 12 15 17 13 9 12 16 18 21 24 26 27 28 30 31 32 33 34 34 33 32 31 31 31 30 30 29 29 29 27 26 25 24 24 22 21 20 18 17 17 16 15 14 14 13 12 11 10 10 10 9 8 8 6 6 7 7 7 7 7 6 6 6 6 7 8 8 8 9 9 9 9 9 10
4 2 2 4 3 2 2 1 3 0 5 7 8 7 5 3 2 5 7 6 8 8 10 14 15 15 11 11 15 16 17 20 23 25 27 29 31 32 33 33 33 31 30 30 31 30 28 29 29 29 30 30 29 28 27 26 25 24 23 21 20 19 18 18 16 16 15 14 13 12 12 12 11 10 10 9 8 8 8 8 8 8 8 7 8 8 7 8 8 8 9 9 9 9 9 10 10
4 0 1 2 2 3 0 2 3 2 7 7 7 4 3 3 4 5 9 13 13 6 6 10 14 17 14 13 15 14 16 19 22 27 30 30 32 33 34 34 33 32 31 31 30 28 25 25 26 27 28 29 28 27 27 27 26 26 24 22 21 21 20 19 18 17 15 14 14 13 13 13 12 12 11 11 10 10 10 10 9 9 9 9 9 9 9 9 9 9 9 10 10 10 9 10 10
6 2 1 2 1 2 0 1 2 4 7 6 5 1 1 6 5 2 8 19 17 10 7 6 10 14 13 11 13 15 18 21 25 31 33 33 36 37 36 35 34 32 31 32 31 28 25 23 22 24 25 25 25 25 25 26 26 26 24 23 23 22 21 21 19 17 16 15 15 15 15 14 14 14 13 13 12 12 12 11 11 11 11 10 10 11 11 10 10 10 10 11 11 10 10 10 10
5 3 2 0 1 1 2 2 4 5 3 2 1 2 5 8 3 4 13 20 15 12 12 10 8 6 7 10 12 15 17 22 26 29 31 34 35 34 34 33 32 31 32 33 31 30 27 23 22 24 25 24 23 23 24 25 24 25 24 24 24 23 23 22 20 18 17 17 16 16 16 16 16 15 15 14 13 14 14 13 13 13 12 12 12 12 12 12 11 11 11 11 12 11 11 11 11
2 4 3 1 1 3 3 3 3 3 1 1 0 5 7 5 3 7 18 19 12 9 10 12 10 8 8 9 10 13 15 20 25 27 30 32 31 30 32 33 32 33 34 33 31 30 26 23 24 25 25 24 23 24 24 24 24 24 24 24 24 24 24 22 20 20 19 19 18 18 18 18 17 17 16 16 16 16 15 15 15 14 14 13 13 13 13 13 12 11 11 12 12 12 11 11 12
3 6 5 4 1 3 2 2 3 3 2 2 2 7 6 4 2 6 12 8 4 5 8 9 9 12 12 9 10 14 16 21 27 27 25 26 27 30 32 31 33 36 34 33 32 30 26 24 25 25 25 25 24 25 25 24 24 24 24 23 24 24 24 23 23 23 22 21 20 19 19 19 18 18 18 18 18 18 17 17 17 16 16 15 14 15 14 14 14 12 12 12 13 13 12 11 12
4 6 3 5 5 3 0 1 3 3 2 4 5 6 5 2 1 11 14 3 3 3 8 8 9 12 13 11 10 11 15 22 26 24 23 26 29 32 33 33 35 36 34 34 33 29 27 26 26 24 25 25 26 26 25 24 25 24 23 23 24 24 23 24 24 25 24 23 21 21 21 20 20 20 20 19 19 20 19 19 18 18 18 16 16 16 15 15 14 13 12 12 13 14 13 12 12
3 3 1 6 7 4 2 1 2 2 1 4 4 4 6 3 8 18 14 4 6 4 8 7 9 11 10 11 9 9 15 19 20 23 28 32 33 32 33 36 36 34 34 32 30 29 28 27 26 25 25 26 26 26 25 25 25 24 24 24 24 23 24 25 26 25 25 24 23 23 22 21 22 21 21 21 21 21 21 21 21 21 20 18 17 17 16 16 15 14 12 13 14 14 14 13 12
1 1 3 3 7 5 4 1 2 3 0 3 3 4 6 7 15 19 10 5 6 7 8 8 7 8 8 8 8 9 13 15 18 26 30 32 32 31 33 35 33 33 32 29 29 29 28 28 27 27 26 27 27 26 26 26 26 25 25 24 24 24 24 25 26 25 25 24 24 24 23 23 23 22 22 22 22 23 23 23 23 22 21 19 18 18 17 16 15 14 13 13 14 14 14 13 13
1 2 2 3 3 3 5 1 3 2 0 3 4 3 8 8 12 15 10 5 5 7 9 8 7 7 7 7 8 9 11 16 21 26 28 29 31 31 32 33 31 31 31 29 29 27 26 27 28 29 28 28 27 27 27 27 26 26 26 25 25 25 25 26 26 25 25 24 24 24 24 24 24 24 24 24 24 24 24 24 24 23 21 20 20 19 18 17 16 15 13 14 15 14 13 12 12
4 2 3 4 1 4 8 2 4 2 3 2 4 3 8 10 10 10 5 1 3 8 10 8 8 8 7 7 7 8 10 14 20 24 26 28 29 30 31 32 30 30 30 29 28 26 27 27 29 30 29 29 29 28 28 27 27 27 27 27 26 26 26 26 26 25 25 25 25 25 25 25 25 25 25 25 26 25 26 25 25 23 22 21 21 20 19 18 17 15 14 15 15 14 13 13 12
4 3 2 3 1 3 6 2 2 2 3 2 1 3 6 9 9 8 5 5 6 9 11 10 9 9 8 7 7 7 8 10 14 21 27 28 29 30 30 30 30 30 29 29 28 27 27 27 28 30 30 30 29 28 28 27 28 28 28 27 27 27 27 28 27 26 26 26 26 26 26 26 26 26 26 27 27 27 27 26 25 23 22 22 21 21 21 19 17 16 15 15 15 14 13 13 12
4 3 1 4 2 3 4 3 2 1 1 3 2 4 9 12 12 13 10 7 7 8 10 11 9 8 8 7 7 7 7 7 9 18 27 29 30 31 30 30 30 29 29 28 28 27 27 27 28 30 30 30 30 29 28 28 28 28 28 28 28 28 28 29 28 28 28 28 28 28 27 27 28 28 28 28 28 28 27 27 26 24 23 22 22 22 21 20 18 17 17 15 14 14 13 13 13
3 1 0 3 4 4 4 3 1 3 1 5 3 4 13 16 14 14 8 3 5 8 9 9 9 8 8 7 7 7 7 8 12 20 25 26 28 29 29 30 29 29 29 28 28 27 27 27 27 28 30 30 29 29 28 28 28 28 29 29 29 30 30 30 30 30 30 29 29 29 29 29 29 29 29 29 29 29 28 28 27 25 24 23 23 23 22 21 20 19 18 16 14 14 13 13 13
5 4 3 3 4 4 6 4 2 1 3 6 5 5 11 15 16 14 9 5 5 9 7 7 8 7 7 6 7 7 7 10 15 20 22 22 24 25 26 27 27 28 28 27 27 27 28 28 28 29 29 29 28 28 28 29 29 30 30 31 32 33 32 32 31 31 31 31 31 30 31 31 31 31 30 30 30 30 29 29 28 26 25 24 24 25 24 22 21 20 18 17 15 14 14 13 12
4 3 3 4 4 5 5 3 3 2 3 6 5 5 11 13 14 13 10 8 6 7 7 7 7 6 6 6 7 8 7 10 13 17 19 20 22 22 23 23 24 25 25 26 26 28 28 28 29 30 29 28 29 29 29 30 30 31 31 32 34 33 32 32 32 32 31 32 31 32 32 32 32 32 32 31 31 31 30 29 29 27 26 26 26 26 24 22 21 20 18 17 16 15 15 13 11
3 3 3 3 3 5 5 2 4 5 3 6 3 6 12 11 11 11 8 7 6 6 6 7 8 7 6 6 8 8 7 8 10 12 15 17 19 20 20 21 22 23 24 25 27 28 28 28 30 30 29 29 29 29 29 30 31 31 31 31 31 31 31 31 31 31 31 31 32 33 33 33 33 33 33 32 32 31 31 30 30 29 27 27 27 26 24 23 22 21 20 19 18 17 16 13 11
1 2 1 3 3 4 6 3 5 5 2 5 5 7 11 11 9 10 6 4 5 5 5 6 7 7 7 7 7 7 7 7 7 8 10 11 14 17 18 20 22 24 24 25 26 27 28 29 30 30 29 30 30 29 30 30 30 29 30 30 29 29 29 29 30 30 31 32 33 33 33 33 34 34 33 33 32 32 31 31 30 29 28 27 27 27 26 26 25 23 22 21 19 17 17 15 13
1 0 1 3 4 3 3 4 7 6 1 5 7 5 7 8 7 7 5 4 5 6 5 4 4 5 7 7 6 6 7 7 7 7 7 6 8 12 16 19 21 22 24 25 26 27 28 29 30 30 30 30 30 30 30 30 29 29 29 30 30 29 29 29 29 30 31 32 33 33 33 33 33 33 33 32 32 32 31 31 30 29 29 28 28 28 28 28 26 25 23 22 20 19 19 16 14
2 2 3 2 2 1 3 5 8 7 2 4 5 4 4 6 6 6 6 5 6 7 8 8 6 6 6 6 6 5 6 6 7 7 7 6 6 8 13 16 19 21 24 25 26 27 29 29 30 31 31 31 31 30 30 30 30 30 30 29 29 29 30 30 30 32 33 33 33 33 33 32 32 32 31 31 31 31 31 30 30 29 29 28 28 29 29 28 27 25 24 23 22 21 20 16 15
4 2 4 4 3 2 4 6 6 5 4 5 5 5 4 6 5 6 6 7 7 7 8 8 8 8 7 7 8 7 6 5 5 6 7 8 8 8 10 14 17 21 24 25 26 27 28 29 30 31 31 32 32 31 30 30 31 32 30 30 29 29 31 33 34 35 35 34 33 32 30 29 29 29 29 29 30 30 30 30 29 30 29 29 29 29 29 28 27 26 24 23 23 22 20 18 18
2 2 4 5 5 1 2 4 4 3 3 5 5 5 3 7 6 6 5 6 7 7 7 7 7 7 7 6 6 7 7 6 5 6 7 8 9 10 12 14 18 21 22 23 25 26 28 29 29 30 31 32 32 31 31 31 32 33 33 33 33 32 33 36 36 35 35 33 32 30 28 27 27 28 28 28 29 29 29 29 30 30 30 29 29 29 29 29 28 26 24 23 23 22 21 22 22
2 2 5 4 3 1 0 3 3 1 3 5 5 4 2 4 6 6 3 3 7 8 7 8 7 6 7 6 6 6 6 6 6 6 6 7 9 10 13 16 18 20 21 22 23 25 27 28 29 30 31 31 32 32 32 32 33 34 35 35 36 36 37 39 38 35 33 32 31 31 29 28 28 28 28 29 29 30 30 30 30 30 30 30 29 30 30 29 28 26 25 24 24 23 23 25 24
3 3 3 2 2 2 3 4 2 2 2 4 6 3 1 5 7 6 3 0 5 7 5 7 7 7 7 6 7 7 6 6 5 6 7 8 10 10 10 13 15 18 20 21 23 24 25 27 28 29 31 31 31 32 32 33 34 34 35 36 37 38 39 39 38 35 33 32 32 32 31 30 30 30 30 31 30 31 31 30 30 30 31 30 30 30 29 29 28 27 26 25 25 25 25 25 25
1 3 3 3 3 3 3 4 2 2 3 2 6 4 2 5 6 5 3 2 2 4 4 6 7 7 7 7 7 7 6 6 5 6 7 10 12 11 11 12 12 13 15 17 20 21 23 24 26 28 30 31 30 30 31 32 33 34 35 36 38 39 39 38 37 36 36 34 34 35 34 33 33 32 32 32 32 31 31 31 30 31 31 30 30 30 30 29 29 28 27 26 26 26 26 26 26
2 4 4 4 4 4 3 2 2 4 3 5 6 2 2 3 6 4 1 1 4 5 4 6 7 7 7 7 6 6 6 6 6 6 8 13 14 13 12 13 13 13 12 13 15 17 19 20 22 24 27 28 29 29 29 30 31 32 35 36 37 39 38 35 34 36 36 35 35 37 36 35 34 33 32 32 32 31 31 31 30 30 30 30 31 31 30 30 29 29 28 27 27 27 27 27 27
3 3 3 3 4 3 2 4 4 3 3 6 5 2 2 2 6 5 5 5 5 7 6 7 7 7 6 6 6 6 6 5 6 6 7 11 14 14 15 15 15 14 12 12 12 13 15 17 18 21 23 23 25 26 27 29 30 31 33 35 36 37 36 34 33 36 36 34 35 36 35 34 34 32 32 31 32 31 31 31 30 30 30 31 31 31 30 30 29 29 29 29 28 28 29 28 28
3 2 3 3 4 4 2 4 3 1 4 3 1 2 1 5 8 8 8 8 7 8 8 8 7 7 7 7 6 6 5 5 5 5 6 7 9 12 15 16 16 16 14 12 11 11 12 14 16 19 21 20 22 24 26 27 29 30 32 33 35 36 36 36 36 37 37 35 35 34 34 34 33 32 32 32 31 31 31 31 31 31 31 31 31 30 30 30 30 30 30 30 30 30 30 30 30
2 2 2 2 1 3 2 4 3 3 5 3 1 2 3 4 5 8 9 9 8 8 8 8 7 7 7 7 6 6 6 5 5 5 5 6 8 12 13 14 15 16 16 13 11 10 10 11 13 17 19 19 20 23 24 26 28 30 31 32 34 36 36 37 38 38 38 37 35 35 34 34 34 33 33 32 31 30 30 31 31 31 30 30 30 30 30 30 30 31 31 31 31 31 31 31 30
1 3 4 3 4 3 3 4 2 4 5 4 3 1 3 2 2 5 8 8 4 5 7 5 5 6 5 6 6 6 6 5 5 5 5 6 8 11 12 12 14 15 16 15 13 11 10 10 11 13 16 16 17 20 22 24 26 27 29 31 33 34 36 36 37 37 37 36 35 35 35 34 34 34 34 32 31 30 30 30 30 31 30 30 30 30 30 30 31 32 32 32 32 31 30 31 30
2 2 3 1 3 4 1 3 4 2 2 4 3 3 5 4 5 6 4 3 1 2 4 4 6 7 5 6 6 5 5 5 5 5 5 7 10 11 10 12 12 13 15 15 14 13 12 11 11 12 14 14 15 17 19 20 22 24 25 27 29 31 33 35 36 36 35 35 35 35 35 34 34 34 33 33 32 31 30 30 30 31 30 30 30 30 30 31 32 32 33 32 32 31 30 31 30
1 1 1 3 3 6 4 1 1 4 1 4 2 3 6 4 4 6 4 4 3 1 5 6 6 7 6 6 6 5 5 5 5 5 5 7 9 10 10 11 11 12 14 14 15 14 13 13 12 12 13 13 14 14 16 17 19 21 22 24 26 27 30 32 33 34 34 33 33 33 34 33 33 33 32 32 32 31 30 30 30 30 30 30 31 31 31 31 31 32 32 32 32 31 30 31 30
2 1 4 3 3 5 4 1 3 5 0 4 2 4 6 3 3 5 4 3 4 5 7 6 7 7 6 6 6 6 6 5 5 5 5 6 8 9 9 10 11 11 12 13 14 14 13 13 12 13 13 13 13 13 14 15 16 18 20 21 22 24 26 28 29 30 31 31 31 31 31 32 32 31 31 31 30 30 30 30 30 30 31 31 31 31 31 31 31 31 32 32 31 31 30 30 29
1 1 2 1 3 1 1 2 0 1 2 4 5 5 4 3 4 4 3 7 7 8 8 6 7 7 6 6 6 6 5 5 5 5 5 6 7 8 8 9 11 12 12 13 13 14 14 14 13 13 13 13 13 13 13 14 14 16 17 18 19 20 22 24 25 26 27 28 29 29 29 30 30 29 29 29 29 30 30 30 31 31 31 31 31 31 30 29 30 31 31 31 30 30 30 30 29
2 2 2 1 3 3 1 2 3 2 2 3 4 6 4 6 6 6 9 10 9 8 7 6 7 7 6 6 6 6 5 4 5 5 5 6 7 8 7 8 11 12 13 13 13 15 15 15 15 15 15 15 14 14 14 14 14 14 16 17 17 18 19 20 22 23 25 26 26 27 27 28 28 28 28 28 28 29 29 30 30 30 30 30 30 30 29 29 29 30 30 30 29 29 29 29 28
2 1 1 1 1 2 1 1 2 4 2 2 1 4 6 7 4 7 10 10 9 9 7 7 7 6 7 7 5 5 5 5 5 5 5 7 8 7 6 7 10 11 12 12 13 15 16 17 17 16 17 17 17 16 15 15 15 14 16 16 17 17 17 18 20 21 23 24 24 25 26 26 27 27 27 27 28 28 28 28 28 29 29 29 29 29 28 28 28 28 29 29 28 28 28 28 26
4 4 4 4 3 4 2 3 2 2 3 4 4 4 9 7 4 6 7 7 9 8 7 6 7 7 7 6 5 6 5 5 6 5 5 6 7 6 5 7 9 12 13 13 13 14 16 18 19 18 18 18 18 17 16 16 16 15 16 16 16 16 16 17 18 19 21 22 23 23 24 25 25 25 25 26 26 26 26 26 27 27 27 27 27 27 27 27 27 28 28 29 28 28 28 27 26
Wind_Direction
334 335 337 336 331 342 360 70 64 359 71 84 69 107 172 154 161 126 122 198 150 284 228 158 91 117 115 175 193 199 189 180 171 144 202 246 156 172 180 181 193 204 201 202 199 194 190 185 179 174 184 186 182 184 183 198 200 164 149 129 121 108 78 37 1 9 6 5 9 6 7 14 22 23 28 27 25 23 24 26 25 25 26 23 23 23 24 24 24 23 25 25 25 26 27 28 30
337 338 339 339 348 10 299 66 87 1 64 89 332 147 164 69 106 154 176 193 193 237 212 130 80 84 80 120 172 221 243 231 191 175 240 182 160 181 186 191 198 205 208 211 213 203 190 183 182 177 182 190 187 192 191 197 201 151 131 114 105 99 88 51 352 350 352 356 4 8 8 9 18 17 22 27 26 23 23 26 24 24 24 22 22 21 21 21 22 21 23 23 24 25 25 28 29
345 343 344 354 15 47 74 46 89 85 85 118 277 243 120 106 157 193 202 196 208 219 74 72 65 91 74 29 227 197 255 260 209 204 313 174 181 192 188 196 203 208 212 214 218 207 197 186 184 182 180 192 192 194 193 196 196 148 101 92 89 77 66 31 345 343 350 1 4 3 4 6 10 13 15 17 20 23 20 21 22 22 21 21 19 18 18 18 19 19 20 22 23 23 24 26 28
351 344 343 360 39 33 52 49 104 108 107 144 191 259 156 152 179 199 210 207 219 91 57 67 49 211 126 252 239 212 252 263 217 190 186 197 196 193 188 195 202 206 211 213 220 210 205 202 197 192 185 190 194 194 194 197 192 145 83 81 75 64 43 23 358 359 3 4 6 1 358 359 2 11 11 10 12 17 18 16 17 17 16 17 15 15 14 14 16 17 18 20 21 22 23 25 28
349 346 350 28 76 38 80 75 82 94 144 168 154 244 206 168 173 183 208 227 231 115 135 111 188 266 186 237 201 178 237 259 232 198 215 214 196 191 189 191 198 203 207 212 218 213 210 209 209 206 197 194 194 195 200 201 190 141 76 75 63 58 40 32 15 8 9 5 5 360 356 356 358 4 5 10 8 9 16 17 13 12 14 13 13 13 12 13 15 16 17 18 19 19 20 23 27
351 4 27 59 80 84 83 65 63 70 179 168 145 226 202 169 172 170 181 253 275 186 170 137 181 275 270 254 201 209 209 154 186 198 225 216 188 190 189 191 199 203 206 210 215 216 214 213 218 220 209 200 194 200 208 205 196 177 83 75 55 55 43 33 24 13 10 7 4 0 359 358 357 360 1 4 5 6 10 16 12 7 10 10 11 12 12 14 17 19 17 17 18 18 19 22 26
353 17 39 57 43 46 81 82 83 55 199 161 159 177 177 178 177 150 151 208 316 288 211 184 175 114 258 271 266 242 202 189 168 198 221 198 183 186 190 194 201 203 204 207 213 217 215 218 227 228 218 204 197 206 215 211 218 218 126 66 58 54 48 38 32 23 15 11 7 5 3 2 2 4 5 3 4 5 4 11 11 6 9 9 10 11 12 15 21 23 19 20 20 19 20 23 27
356 42 58 74 41 30 90 78 61 132 33 66 164 162 171 179 170 148 165 183 170 245 213 226 160 129 269 299 262 244 202 211 229 233 214 191 191 187 192 199 202 203 202 205 211 217 216 221 230 232 225 212 207 213 221 222 234 234 218 64 67 58 52 45 37 32 23 18 13 11 8 8 9 9 11 11 10 9 7 7 10 9 9 9 10 11 14 17 24 26 21 23 23 21 23 27 31
14 77 57 80 73 50 77 43 29 139 3 1 114 149 172 175 167 154 162 202 182 181 223 215 160 187 284 313 255 268 222 220 223 230 213 199 202 195 197 203 206 204 201 203 208 219 219 222 230 234 232 225 219 220 229 235 241 243 237 229 73 63 54 44 40 35 28 24 19 19 16 16 15 16 17 18 19 17 15 12 14 14 12 12 13 14 18 22 27 28 24 24 25 24 26 32 35
30 50 86 87 80 69 62 14 347 71 310 265 181 168 171 174 175 170 156 198 186 166 233 185 149 224 278 278 254 279 231 215 207 210 211 205 204 201 202 205 211 208 203 204 209 221 223 227 232 235 239 237 230 228 236 243 244 245 245 248 116 59 45 30 31 27 25 25 23 24 23 24 22 24 24 24 27 25 25 20 20 20 20 18 18 23 25 29 33 34 32 32 32 30 32 37 39
34 3 90 85 69 92 122 173 220 238 261 297 225 197 181 172 168 185 169 194 187 164 208 130 169 227 241 278 250 258 213 201 204 206 208 205 205 205 205 207 211 211 210 210 214 224 227 231 235 238 245 244 237 237 241 244 246 245 246 247 245 264 327 356 3 4 8 14 18 25 26 29 27 30 32 33 35 33 34 30 30 31 31 28 27 34 35 38 40 42 43 42 42 39 41 41 41
71 351 71 82 98 146 167 155 192 237 297 290 205 229 193 160 157 186 185 191 185 192 220 173 186 173 151 276 256 278 203 200 209 210 207 205 208 209 208 210 210 213 214 215 220 227 232 235 238 241 246 246 241 240 242 244 247 245 245 245 246 257 276 299 319 331 337 349 360 15 22 29 29 31 38 40 42 43 42 39 41 41 42 42 40 44 45 49 47 48 49 48 47 43 43 41 41
110 139 87 83 127 129 134 135 197 211 308 246 199 224 163 149 191 195 179 188 179 180 237 207 162 134 199 261 275 308 207 210 211 207 208 207 212 211 210 212 212 214 213 215 223 230 234 237 239 243 246 247 244 242 243 244 246 246 246 244 244 249 258 274 285 300 310 323 336 356 9 20 23 27 37 44 48 49 49 49 49 49 51 51 49 50 49 53 52 51 51 46 42 37 35 31 31
141 150 100 100 105 111 132 115 209 178 258 240 195 187 152 171 207 176 149 180 216 192 232 212 157 120 233 253 298 281 223 215 205 204 209 210 213 214 215 215 215 216 212 214 223 232 235 238 239 242 247 247 245 243 242 243 245 246 246 246 245 247 251 261 270 279 290 298 310 333 349 360 6 11 25 38 48 49 50 50 52 54 56 55 52 52 47 45 45 42 40 36 31 25 21 18 18
149 127 89 105 83 81 150 168 168 168 239 216 183 169 156 229 168 139 163 184 244 220 206 208 166 166 212 191 240 250 232 212 199 202 206 209 212 214 218 217 218 219 216 217 224 233 235 237 239 241 246 247 246 244 244 244 244 245 247 248 246 247 249 254 261 268 276 282 289 304 326 338 339 340 356 22 37 40 42 41 43 46 47 51 48 45 41 32 30 27 25 23 19 13 11 11 11
139 108 75 85 109 122 181 184 142 155 249 214 178 147 153 253 166 148 212 167 262 250 148 204 188 212 194 185 226 254 249 207 196 199 203 208 210 212 218 218 221 222 220 221 223 231 234 236 237 239 243 245 246 246 247 245 244 246 247 249 248 248 249 252 257 261 266 271 278 283 297 310 306 305 317 357 19 18 25 23 19 21 23 27 24 23 21 14 11 11 9 8 6 3 4 4 3
79 80 67 73 136 175 178 176 172 171 237 221 184 152 158 249 247 189 282 140 236 261 230 226 225 238 210 215 257 280 272 200 192 194 199 204 207 210 216 218 221 223 222 222 224 228 232 234 235 238 242 244 246 247 248 246 244 246 247 248 247 249 250 252 256 258 262 264 270 273 280 288 288 291 301 326 344 343 353 356 347 349 352 354 356 357 358 355 352 354 355 354 352 353 356 358 358
60 75 84 115 169 187 167 180 197 169 199 205 189 174 164 198 228 171 354 255 241 265 267 249 260 258 243 250 262 260 230 193 189 190 195 201 205 209 214 217 220 223 224 223 224 226 229 233 235 237 241 243 245 248 249 248 247 247 247 247 245 248 250 251 255 256 258 260 263 266 272 280 284 286 291 303 307 311 325 324 318 321 325 327 332 336 338 336 336 340 344 342 342 346 349 353 355
78 96 90 174 196 186 172 184 203 192 191 181 182 186 175 193 196 146 223 257 255 251 261 247 259 265 255 251 237 224 201 186 188 191 195 200 204 209 214 218 220 225 226 224 224 224 226 230 234 237 241 243 245 247 248 249 250 249 248 247 245 246 249 251 253 253 254 256 258 261 266 275 281 282 285 289 295 300 305 304 301 304 306 307 311 318 321 322 324 328 335 337 338 343 347 350 351
88 102 91 228 211 192 209 197 233 236 168 154 177 182 188 207 176 148 209 251 261 232 239 221 235 249 244 235 209 198 187 185 190 193 199 204 208 211 215 218 220 224 226 227 227 224 224 227 232 236 240 243 245 246 246 247 249 250 249 247 246 246 249 252 251 249 249 251 253 256 261 270 276 278 283 287 293 297 295 295 294 295 295 297 301 308 313 314 318 322 328 333 336 340 345 347 346
64 90 145 226 191 133 214 224 284 258 157 158 159 142 203 226 175 184 176 221 263 236 229 214 222 236 229 215 198 192 187 188 193 198 203 208 213 216 219 222 225 228 230 230 230 227 226 228 231 235 239 242 244 246 245 246 248 249 250 247 246 246 249 252 249 246 245 247 249 251 255 263 271 273 279 286 292 292 290 292 293 293 292 295 300 304 309 310 314 319 323 329 332 335 340 342 341
64 55 177 220 163 129 248 285 323 37 122 141 142 147 206 195 179 209 167 199 242 226 220 215 223 233 217 201 196 192 194 196 198 203 208 211 216 219 222 227 229 232 233 233 234 233 232 233 236 238 240 242 244 246 246 247 247 249 251 249 247 246 248 250 247 245 243 244 246 248 250 256 265 269 274 281 286 285 284 289 290 290 291 296 301 303 307 309 313 317 321 326 329 329 332 335 336
91 28 343 331 181 164 253 350 343 109 120 143 161 180 203 160 256 231 188 224 234 209 196 203 227 237 223 201 191 193 200 202 205 207 210 213 218 221 224 227 230 233 234 237 240 240 238 238 240 240 241 241 242 245 245 245 246 249 252 251 248 247 248 249 246 245 245 244 245 246 249 254 261 265 269 274 279 279 281 285 287 289 294 300 303 306 309 309 312 317 319 323 326 325 326 327 329
87 132 314 358 129 150 195 52 28 103 138 180 183 192 197 191 243 269 216 237 239 239 241 222 242 242 221 200 192 201 206 207 212 214 215 218 222 226 228 229 232 235 236 239 242 242 242 240 239 239 238 237 238 240 241 242 244 247 250 249 248 247 247 248 248 248 247 246 246 247 250 253 257 261 265 270 273 274 278 283 286 290 296 301 304 306 308 307 311 314 316 321 323 321 321 322 324
74 138 217 317 32 298 310 57 54 68 136 202 156 253 242 207 218 309 254 249 246 242 251 251 258 255 209 202 206 207 210 214 218 220 221 224 228 231 233 233 235 236 238 241 243 244 243 239 239 241 237 234 234 236 238 240 242 244 246 247 247 246 246 248 250 250 249 248 248 249 252 254 257 261 265 269 270 271 277 280 283 288 293 297 299 302 304 305 309 312 314 318 320 319 318 319 321
110 143 168 126 344 314 358 35 31 22 316 76 28 267 274 251 252 280 258 257 265 242 239 244 241 251 230 215 216 210 214 219 221 224 225 228 231 234 235 235 235 237 241 244 244 244 242 238 241 242 236 233 233 233 236 239 241 242 244 245 246 246 248 250 251 252 251 249 250 251 253 256 259 263 267 270 269 271 276 277 280 285 287 290 292 297 300 301 306 309 310 315 317 317 315 317 320
108 118 117 92 359 311 44 29 325 328 270 169 213 266 294 312 303 270 256 256 283 239 235 239 227 240 236 226 226 217 219 222 223 225 228 231 231 233 235 234 235 239 241 243 244 245 241 239 242 240 234 232 232 233 236 239 240 242 244 246 247 247 249 250 250 252 252 250 251 252 254 257 260 263 266 268 269 271 273 274 278 281 281 285 287 292 295 296 302 304 306 312 314 313 312 315 320
105 121 92 12 354 313 56 14 320 325 275 174 182 262 289 5 226 245 250 270 36 241 246 243 222 237 237 232 234 221 225 227 225 225 225 228 229 230 233 232 235 238 240 242 246 246 241 239 241 237 232 230 231 233 237 239 241 243 245 246 247 249 250 250 250 252 252 250 251 252 253 256 258 262 265 267 269 270 272 274 275 276 279 281 282 286 289 292 297 299 301 308 310 310 309 314 318
145 147 98 330 359 5 297 321 350 359 297 167 158 298 289 200 222 242 250 313 353 280 258 252 228 238 240 237 240 231 234 231 224 224 225 228 231 231 233 235 236 238 241 245 246 245 242 240 239 236 232 230 231 234 238 240 242 244 246 247 248 249 248 248 249 250 251 251 252 253 254 255 257 261 264 267 269 270 271 272 273 274 277 278 278 280 282 287 292 293 296 303 305 304 305 312 314
212 359 98 343 4 1 310 37 31 358 154 145 118 317 288 225 232 248 264 308 312 288 267 260 242 243 244 238 241 243 241 230 222 226 229 231 234 234 236 240 239 240 244 246 244 243 242 239 237 235 232 231 234 237 239 240 242 244 246 248 249 249 248 248 249 250 251 252 253 254 254 256 257 260 263 266 267 268 269 270 272 274 275 275 273 275 277 282 286 287 291 296 299 300 302 308 309
49 1 53 26 17 300 298 25 77 16 337 97 98 267 273 261 252 257 270 263 244 267 270 261 255 250 245 241 236 245 245 234 232 234 235 236 237 237 239 242 241 241 243 243 243 243 241 237 235 235 233 234 236 238 240 242 244 245 246 248 248 249 248 249 250 250 251 251 253 254 254 255 258 260 263 265 266 267 268 269 272 274 274 272 270 271 273 276 279 282 286 290 295 297 298 303 306
43 36 328 356 46 275 303 309 146 187 288 65 110 239 274 278 272 260 259 268 227 262 272 265 264 258 250 247 236 242 251 245 244 245 243 241 240 240 241 243 242 242 242 242 243 242 240 236 234 234 234 235 237 239 242 244 245 246 248 249 250 250 250 251 252 252 252 253 254 254 254 256 258 261 262 264 265 266 266 268 271 273 272 269 267 267 267 270 274 277 280 285 290 293 295 298 301
1 69 260 284 297 292 316 323 183 209 294 331 187 241 280 278 276 273 277 317 299 278 276 269 263 263 256 252 244 245 256 257 253 249 246 244 243 244 244 245 245 244 244 242 241 239 238 236 233 233 235 236 238 240 242 244 245 246 248 250 251 252 252 253 254 254 254 254 254 255 255 257 258 261 262 263 264 265 266 268 270 271 269 267 265 263 264 267 269 270 274 280 283 287 291 296 298
320 30 308 260 256 271 304 312 296 15 262 267 257 226 262 272 280 290 291 291 286 274 277 274 265 263 258 254 255 251 251 256 252 247 246 244 244 245 246 247 247 246 246 244 242 240 239 237 234 233 235 237 239 242 243 244 245 246 248 250 252 253 253 255 256 255 255 255 255 256 256 258 259 261 262 263 263 264 265 267 268 268 266 263 261 261 263 265 264 265 270 274 276 279 284 291 294
217 247 317 300 296 262 264 272 288 22 318 258 276 258 269 281 289 294 295 308 292 276 275 279 276 268 262 258 254 252 251 253 251 248 249 248 247 247 247 247 246 245 244 243 241 240 239 237 235 235 235 236 239 241 242 243 244 244 245 247 249 251 252 254 254 254 254 255 255 257 258 258 260 261 262 263 263 264 264 265 266 266 264 261 258 258 259 259 259 261 267 271 270 270 276 284 289
161 187 178 239 274 269 259 263 260 6 311 265 244 255 279 293 300 301 312 344 310 284 284 285 284 280 273 265 255 253 250 250 256 258 259 257 253 251 249 247 245 244 243 241 239 236 235 234 234 234 234 235 236 236 236 237 238 240 241 243 245 247 250 251 251 252 253 255 256 257 259 259 260 261 262 262 262 263 263 264 264 264 262 259 256 255 255 256 257 260 266 268 264 263 267 274 279
119 152 196 233 241 276 273 275 296 352 334 269 235 270 285 285 290 294 313 337 324 310 318 304 297 298 285 276 269 262 249 256 271 273 267 261 255 252 249 247 244 241 239 237 235 233 232 231 232 232 232 232 232 232 232 232 233 235 237 240 243 247 249 250 251 252 253 256 258 258 259 260 261 261 262 262 262 262 262 262 262 261 259 256 255 255 256 257 256 258 260 260 257 257 261 266 266
101 175 233 277 233 259 271 243 304 359 15 272 288 326 293 284 291 297 319 338 324 322 322 311 315 315 303 288 278 274 268 277 290 280 266 257 251 248 245 242 238 235 235 233 233 233 232 232 232 233 231 229 230 231 231 232 233 235 237 241 245 249 251 252 255 257 259 260 261 261 262 262 262 262 262 262 261 261 260 260 260 260 258 256 255 254 254 252 251 252 252 251 251 252 257 262 256
88 176 203 312 266 282 299 291 313 353 31 271 320 337 294 291 298 298 311 297 279 288 283 284 305 321 327 316 293 292 296 297 301 287 274 263 249 243 240 237 235 235 235 233 233 234 233 233 233 233 232 231 232 233 233 235 238 240 242 246 249 252 255 257 260 262 263 263 263 262 263 263 262 262 262 262 261 260 259 259 260 259 257 255 252 251 249 247 247 247 246 248 248 248 253 254 247
87 154 95 286 297 355 306 295 324 328 250 260 300 307 287 310 324 309 309 291 292 314 318 309 301 306 309 306 297 292 296 302 306 297 289 284 256 237 232 233 233 232 232 232 232 232 233 234 235 234 233 234 235 236 237 240 242 243 244 247 250 252 256 259 260 261 260 260 261 261 261 260 260 260 260 260 260 259 259 259 259 258 256 254 251 249 247 246 245 245 244 245 242 241 247 247 241
314 207 161 225 287 335 249 283 322 328 320 284 320 344 309 335 351 316 316 346 350 349 4 4 345 325 316 325 331 306 286 289 297 301 298 297 276 244 234 234 233 230 229 231 231 232 234 235 236 236 237 238 239 240 241 241 241 242 242 244 246 249 253 255 255 258 257 257 259 261 262 260 258 259 259 258 258 258 258 258 258 256 255 253 249 247 248 248 247 245 245 244 240 240 246 247 239
307 224 178 165 174 215 280 312 338 13 358 317 17 37 301 322 335 283 310 357 350 351 13 0 334 336 345 348 346 336 323 299 278 288 298 295 283 263 245 237 233 233 235 235 235 235 236 238 239 239 240 242 243 243 243 241 240 240 239 239 240 242 247 250 252 257 260 261 264 267 266 263 260 259 258 258 257 257 258 258 256 255 254 252 249 247 248 248 246 244 244 243 241 243 246 245 238
312 218 164 147 144 149 345 355 18 49 308 308 44 93 250 319 316 269 314 345 321 336 359 341 323 331 341 338 333 335 340 337 319 306 302 295 287 271 254 246 238 239 244 242 239 237 238 240 241 241 242 244 245 246 244 241 240 240 239 239 241 241 244 252 257 261 264 266 268 269 267 265 262 260 259 258 257 257 257 257 256 255 254 252 249 248 247 247 246 245 245 243 243 244 241 238 235
285 195 134 126 103 54 93 63 51 241 273 324 16 88 164 297 278 268 307 316 315 344 350 333 329 328 329 331 329 328 325 326 329 327 319 307 303 288 271 265 256 251 253 249 244 243 243 244 244 244 245 246 247 247 245 243 242 241 241 241 243 244 246 255 262 263 265 266 267 268 267 266 263 261 260 258 257 257 256 256 256 255 253 251 249 248 248 248 247 245 244 242 242 243 239 237 236
260 191 138 118 106 136 146 95 65 277 343 330 323 22 71 265 275 304 339 129 326 345 338 316 316 321 327 328 325 322 316 313 308 309 311 312 318 316 302 293 282 270 265 260 255 254 251 249 248 247 248 249 249 248 247 246 245 244 244 243 244 247 250 256 260 261 263 264 265 266 265 264 263 262 260 258 257 256 256 256 256 255 253 251 249 248 248 247 246 245 243 240 240 241 239 238 237
205 140 85 46 68 84 87 93 105 22 33 271 283 353 17 277 283 312 10 70 285 289 288 285 286 297 307 310 317 319 319 321 317 310 315 325 332 334 329 323 316 301 286 277 270 266 261 257 254 252 252 252 252 252 251 250 249 247 246 245 246 250 252 255 258 259 261 261 262 264 263 262 262 262 260 258 256 256 255 256 255 254 253 251 250 249 247 246 245 245 243 243 243 242 240 237 237
121 97 55 30 28 48 57 59 98 57 357 254 254 329 50 311 285 262 262 174 180 190 235 265 272 287 295 300 309 314 316 321 324 325 334 346 355 357 349 343 340 334 317 302 289 278 271 266 262 260 258 257 256 256 254 254 253 250 249 249 249 253 255 256 258 260 262 261 261 263 264 263 263 262 260 258 256 255 255 255 254 254 254 252 250 249 247 247 246 246 245 244 245 243 241 239 237
92 88 54 28 350 11 26 347 34 74 288 261 254 320 79 235 262 245 242 244 191 169 190 218 237 259 278 295 300 303 310 317 330 337 339 351 2 5 3 0 355 350 341 329 314 296 283 273 268 266 265 263 261 260 258 257 256 253 253 252 253 256 257 259 260 263 265 265 265 267 267 265 264 261 259 256 255 254 253 253 253 253 252 251 251 250 249 249 248 247 245 245 245 244 241 239 238
65 66 52 48 346 357 353 320 353 195 251 274 311 353 269 231 247 249 255 257 226 196 190 192 203 226 251 275 291 300 307 316 333 340 333 341 350 353 358 360 360 359 354 346 335 319 300 284 274 268 269 270 266 263 262 260 259 258 257 256 257 259 259 260 262 264 267 268 269 270 269 266 264 261 258 257 258 257 255 255 255 254 255 254 253 252 251 249 248 246 245 245 246 244 241 239 239
76 172 104 95 70 34 311 285 311 274 268 291 314 320 281 269 265 240 242 253 230 200 193 196 199 209 232 258 284 301 304 314 328 332 332 336 341 347 352 355 359 3 2 357 349 339 324 305 289 278 278 278 274 270 268 266 265 264 262 261 261 261 261 262 263 265 267 269 269 270 269 267 265 264 263 264 265 263 261 261 260 259 259 258 256 254 252 250 248 247 246 246 246 245 244 242 242
177 176 132 135 153 143 245 246 238 266 286 299 300 275 206 212 270 234 234 261 259 186 189 215 239 241 253 281 301 306 301 314 332 333 328 326 336 346 350 354 360 6 8 8 2 353 342 331 315 298 294 292 286 282 278 275 274 273 270 268 266 265 265 265 266 267 269 270 271 270 270 268 267 267 268 269 270 267 266 265 263 262 261 260 258 256 254 251 249 248 247 247 247 246 244 243 243
222 156 101 98 170 139 156 193 186 195 316 301 277 235 218 211 273 289 274 260 56 121 204 249 273 276 305 315 302 297 296 309 329 331 326 326 340 350 351 356 2 6 11 14 12 5 354 346 336 321 313 309 303 296 291 288 286 283 279 275 274 272 270 270 270 271 272 273 273 272 271 270 269 270 271 271 271 270 269 268 266 264 262 261 259 258 255 253 251 249 248 246 245 245 243 243 243
211 118 188 233 152 114 113 199 330 68 64 283 272 260 292 323 296 316 36 120 128 177 240 249 269 285 315 304 280 283 289 302 312 307 303 311 330 345 351 358 4 7 10 14 14 12 5 357 347 337 331 325 320 313 306 303 298 293 289 285 283 279 276 275 274 276 277 277 276 273 272 271 271 271 272 272 272 272 271 270 268 266 263 261 260 259 257 254 252 250 248 247 245 244 243 242 242
117 152 224 229 113 92 96 113 355 39 201 277 311 266 292 339 297 321 42 139 204 238 239 255 280 285 288 278 274 279 280 291 300 297 297 304 322 339 350 2 8 11 12 12 13 13 10 6 358 348 342 336 332 326 318 314 307 302 299 295 292 287 284 282 281 281 281 279 277 276 275 274 273 274 274 274 274 272 272 270 268 266 264 262 260 259 257 255 252 250 248 247 246 245 243 241 242
112 194 215 127 127 115 66 121 193 358 263 284 308 296 272 220 234 266 222 204 217 233 238 257 268 257 258 271 286 294 295 307 310 308 306 307 324 336 347 1 9 14 14 12 11 11 10 8 3 356 350 345 340 332 324 319 314 309 305 301 298 294 290 287 285 284 282 279 279 279 278 277 277 277 275 274 273 271 270 269 267 266 263 261 259 258 256 254 252 250 248 247 245 243 242 242 242
21 333 340 10 151 166 160 139 165 195 243 271 309 326 284 229 215 199 207 209 204 214 228 240 242 236 242 258 278 289 288 292 296 296 292 296 316 335 350 4 11 15 14 12 9 8 9 7 3 358 353 350 347 342 334 326 320 315 310 306 304 301 297 293 289 286 282 280 281 281 281 280 280 279 276 274 272 270 269 269 267 266 263 261 259 257 256 254 252 251 249 247 245 243 242 242 241
122 122 292 288 154 143 181 235 139 146 171 198 258 303 270 248 215 191 206 204 193 196 205 225 238 234 242 253 260 266 265 267 270 268 274 289 308 331 1 16 21 21 17 15 10 7 8 7 3 358 353 350 347 345 342 334 328 323 316 314 313 310 306 301 296 291 286 284 284 284 284 284 283 281 279 276 274 272 271 270 268 266 264 263 260 259 257 255 252 251 249 248 245 243 241 240 239
156 177 196 184 158 126 136 278 291 118 159 178 168 261 270 258 212 208 213 194 196 200 189 208 234 230 240 260 255 247 251 258 262 261 266 282 301 326 2 24 26 22 18 16 12 7 7 6 3 358 355 353 348 344 341 338 335 332 327 325 322 318 315 309 303 297 292 290 289 289 289 287 285 284 283 280 277 276 274 271 269 267 266 264 262 260 258 255 252 251 249 246 243 240 238 237 235